AirNav   ProFlight Series 2 Aviation Headset
 
 804 users online  

MO41 Landing Pad
Troy, Missouri, USA

GOING TO TROY?


FAA INFORMATION EFFECTIVE 16 JULY 2020

Location

FAA Identifier: MO41
Lat/Long: 38-58-55.6700N 090-57-47.1100W
38-58.927833N 090-57.785167W
38.9821306,-90.9630861
(estimated)
Elevation: 520 ft. / 158 m (estimated)
Variation: 01E (1995)
Time zone: UTC -5 (UTC -6 during Standard Time)
Zip code: 63379

Heliport Operations

Heliport use: Private use, MEDICAL USE.
Activation date: 10/1997
Control tower: no
ARTCC: KANSAS CITY CENTER
FSS: SAINT LOUIS FLIGHT SERVICE STATION
Attendance: CONTINUOUS
Wind indicator: yes
Segmented circle: no
Lights: FOR PERIMETER AND FLOOD LGTS CALL 314-528-8551.

Nearby radio navigation aids

VOR radial/distance  VOR name  Freq  Var
FTZr356/17.3FORISTELL VORTAC110.8005E
STLr287/23.6ST LOUIS VORTAC117.4001E

Heliport Services

Runway Information

Helipad H1

Dimensions: 50 x 50 ft. / 15 x 15 m
Surface: concrete
Runway edge lights: PERI
INGROUND GREEN LED LGTS AND FLOOD LGTS.
Latitude: 38-58.927833N
Longitude: 090-57.785167W
Elevation: 520.0 ft.
Traffic pattern: leftleft

Heliport Ownership and Management from official FAA records

Ownership: Privately-owned
Owner: LINCOLN COUNTY MEMORIAL HOSP.
1000 EAST CHERRY STREET
TROY, MO 63379
Phone 314-528-8551
MERCY HOSPITAL LINCOLN LEASES THIS PROPERTY FROM LINCOLN COUNTY MEDICAL CENTER AND IS IN CHARGE OF ALL OPERATIONS.
Manager: MARK THORN
1000 EAST CHERRY STREET
TROY, MO 63379
Phone 314-528-8551

Additional Remarks

OWNER DESIRES HELIPORT NOT BE CHARTED.
FOR CD CTC ST LOUIS APCH AT 314-890-1018.

Instrument Procedures

There are no published instrument procedures at MO41.

Some nearby airports with instrument procedures:

KFYG - Washington Regional Airport (24 nm S)
KSUS - Spirit of St Louis Airport (24 nm SE)
KSET - St Charles County Smartt Airport (25 nm E)
H19 - Bowling Green Municipal Airport (26 nm NW)
1H0 - Creve Coeur Airport (26 nm SE)
 
Loc | Ops | Rwys | IFR | FBO | Links
Com | Nav | Svcs | Stats | Notes
Area around MO41 (Landing Pad)
 
Road maps at: MapQuest Bing Google
 
Aerial photo
No photo
 
Sectional chart

 
Airport distance calculator
Flying to Landing Pad? Find the distance to fly.

From to MO41

Sunrise and sunset
Times for 07-Aug-2020
 Local
(UTC-5)
 Zulu
(UTC)
Morning civil twilight05:4310:43
Sunrise06:1211:12
Sunset20:0701:07
Evening civil twilight20:3601:36

Current date and time
Zulu (UTC)  08-Aug-2020 03:45:49
Local (UTC-5)  07-Aug-2020 22:45:49
 
METAR
KFYG 
24nm S 
080315Z AUTO 13006KT 10SM CLR 24/19 A3008 RMK AO2
KSUS 
25nm SE 
080254Z AUTO 12004KT 10SM CLR 23/18 A3009 RMK AO2 SLP182 T02280178 53004
KSET 
25nm E 
080254Z AUTO 09005KT 10SM CLR 22/19 A3010 RMK AO2 SLP187 T02170189 53005
KSTL 
31nm SE 
080251Z 12007KT 10SM FEW250 25/18 A3011 RMK AO2 SLP186 T02500178 53004
KPPQ 
40nm N 
080335Z AUTO 13004KT 10SM CLR 21/20 A3010 RMK AO2 T02130197
KMYJ 
41nm W 
080335Z AUTO 13005KT 10SM CLR 22/20 A3008 RMK AO2
KALN 
44nm E 
080335Z AUTO 10003KT 10SM CLR 20/20 A3012 RMK AO2 T01980198
KCPS 
45nm SE 
080253Z AUTO 13006KT 10SM CLR 22/18 A3011 RMK AO2 SLP192 T02220183 53006
TAF
KSUS 
25nm SE 
071723Z 0718/0818 14006KT P6SM FEW050 FM080100 16004KT P6SM FEW250 FM081500 18007KT P6SM BKN050
NOTAMs
Click for the latest NOTAMs
NOTAMs are issued by the DoD/FAA and will open in a separate window not controlled by AirNav.

 

 
 

Would you like to see your business listed on this page?

 If your business provides an interesting product or service to pilots, flight crews, aircraft, or users of the Landing Pad, you should consider listing it here.  To start the listing process, click on the button below
 
Add a business
 

Other Pages about Landing Pad

Update a link
 
Copyright © AirNav, LLC. All rights reserved. Privacy Policy  Contact